OPS 0100 DEB *, 4843

Orbit data source: Space-Track

OPS 0100 DEB *, 4843 is space debris in LEO originally from a launch on Fri, 14 Apr 1967 UTC launched from the Air Force Western Test Range (AFWTR). Debris objects in space refer to the collection of defunct objects orbiting the Earth. Examples of debris include non-operational satellites, rocket bodies, and fragments generated from explosions, collisions, or faulty payload assembly.

Loading next visibility...
Identifier
4843, 1967-034E
Orbit
LEO
Last TLE update
3 days ago
Origin
Manufacturer
Unknown
Mission
Spacecraft
Bus & Motor
Unknown
Mass
Unknown
Launch date (UTC)
1967-04-14 (58 years ago)
Launch vehicle
Unknown
Launch site
Air Force Western Test Range (AFWTR)
Object type
Payload
Rocket body
Debris
Shape & HBR
Unknown
Radar Cross Section
Small (<0.1 m²)

Expand to show TLE details & history

TLE from 3 days ago
0 OPS 0100 DEB *
1 04843U 67034E   25179.86287500  .00000142  00000-0  20126-3 0  9990
2 04843  90.3798 128.0440 0029680  78.7928 336.6099 13.52547263225881
Epoch: 2025-06-28T20:42Z
TLE epoch observation values (Epoch: 2025-06-28T20:42:32.4Z)
Latitude
55.35958°
Longitude
-100.33319°
Altitude
1,051.899 km
Speed
7.341 km/s
True Right ascension
08h 29m 59s
True Declination
55° 12' 18"
Sunlit
Object was in daylight at epoch
Visualization orbit readout
Latitude
66.13773°
Longitude
-100.52948°
Altitude
1,052.391 km
Speed
7.343 km/s
Apparent Right ascension
15h 11m 10s
Apparent Declination
38° 51' 57"
Sunlit
Object is in daylight
Visualization observer readout
Local Sidereal Time
05:40:02
Azimuth
28.176° NE
Elevation
-4.183°
Doppler factor
1
Orbital elements
Apogee altitude
1,082.024 km
Perigee altitude
1,037.872 km
Semi-major axis
7,438.085 km
Eccentricity
0.00297
Inclination
90.3798°
RAAN
128.044°
Arg. of periapsis
78.7928°
True anomaly
Unknown
Mean anomaly
336.6099°
Eccentric anomaly
Unknown
Mean motion
3.38339 °/min
Orbital period
106.4 mins
BSTAR
0.00020126
Loading maneuver chart data...
Loading SW <> Apogee altitude chart data...
Loading historical data...
Loading historical data...
Loading historical data...
Loading historical data...
Loading historical data...
Loading historical data...
Loading historical data...

OPS 0100 DEB * Visibility forecast

Observer location: undefined°, undefined°

Span
Click to sort rows by Start time (UTC) header in descending order
Start Az.
Max El. time (UTC)
Max El. Az.
Max El.
End time (UTC)
End Az.
9 mins2025-07-01 19:35:20.548Z123.529° SE2025-07-01 19:40:20.548Z67.499° ENE23.109°2025-07-01 19:44:20.548Z25.802° NE
10 mins2025-07-01 21:21:20.548Z204.964° SW2025-07-01 21:25:20.548Z262.093° W36.969°2025-07-01 21:31:20.548Z344.481° N
11 mins2025-07-02 08:29:20.548Z10.758° NNE2025-07-02 08:34:20.548Z86.601° E42.693°2025-07-02 08:40:20.548Z172.654° S
6 mins2025-07-02 10:17:20.548Z316.59° NNW2025-07-02 10:20:20.548Z283.72° WNW17.979°2025-07-02 10:23:20.548Z253.281° W
|